TimeEDT,TemperatureF,Dew PointF,Humidity,Sea Level PressureIn,VisibilityMPH,Wind Direction,Wind SpeedMPH,Gust SpeedMPH,PrecipitationIn,Events,Conditions,WindDirDegrees,DateUTC
12:51 AM,46.9,33.1,59,30.25,10.0,North,4.6,-,N/A,,Clear,360,2013-03-29 04:51:00
1:51 AM,46.9,33.1,59,30.25,10.0,North,5.8,-,N/A,,Clear,360,2013-03-29 05:51:00
2:51 AM,46.9,32.0,56,30.25,10.0,Variable,3.5,-,N/A,,Clear,0,2013-03-29 06:51:00
3:51 AM,46.9,30.0,52,30.24,10.0,Variable,4.6,-,N/A,,Clear,0,2013-03-29 07:51:00
4:51 AM,46.0,30.9,56,30.24,10.0,Variable,3.5,-,N/A,,Clear,0,2013-03-29 08:51:00
5:51 AM,46.0,30.9,56,30.25,10.0,Variable,5.8,-,N/A,,Clear,0,2013-03-29 09:51:00
6:51 AM,45.0,32.0,60,30.26,10.0,Variable,6.9,-,N/A,,Clear,0,2013-03-29 10:51:00
7:51 AM,46.9,33.1,59,30.28,10.0,NNW,8.1,-,N/A,,Clear,330,2013-03-29 11:51:00
8:51 AM,48.0,33.1,56,30.28,10.0,NNW,8.1,-,N/A,,Clear,330,2013-03-29 12:51:00
9:51 AM,50.0,34.0,54,30.29,10.0,NW,8.1,-,N/A,,Clear,320,2013-03-29 13:51:00
10:51 AM,51.1,33.1,50,30.30,10.0,NNW,8.1,-,N/A,,Clear,330,2013-03-29 14:51:00
11:51 AM,53.1,32.0,45,30.29,10.0,WNW,6.9,-,N/A,,Clear,290,2013-03-29 15:51:00
12:51 PM,54.0,30.0,40,30.27,10.0,NE,8.1,-,N/A,,Clear,40,2013-03-29 16:51:00
1:51 PM,54.0,28.9,38,30.26,10.0,NNE,6.9,-,N/A,,Clear,20,2013-03-29 17:51:00
3:51 PM,54.0,28.9,38,30.22,10.0,Calm,Calm,-,N/A,,Clear,0,2013-03-29 19:51:00
4:51 PM,53.1,34.0,48,30.21,10.0,SW,6.9,-,N/A,,Clear,220,2013-03-29 20:51:00
5:51 PM,54.0,34.0,47,30.21,10.0,SE,5.8,-,N/A,,Clear,140,2013-03-29 21:51:00
6:51 PM,48.9,39.0,69,30.22,10.0,SE,6.9,-,N/A,,Partly Cloudy,140,2013-03-29 22:51:00
7:51 PM,48.9,39.9,71,30.24,10.0,SSE,4.6,-,N/A,,Partly Cloudy,150,2013-03-29 23:51:00
8:51 PM,48.0,39.9,74,30.25,10.0,SSE,4.6,-,N/A,,Clear,150,2013-03-30 00:51:00
9:51 PM,46.9,39.9,77,30.26,10.0,SSW,3.5,-,N/A,,Clear,210,2013-03-30 01:51:00
10:51 PM,43.0,37.9,82,30.26,10.0,ESE,3.5,-,N/A,,Clear,110,2013-03-30 02:51:00
11:51 PM,42.1,37.9,85,30.25,10.0,ESE,3.5,-,N/A,,Clear,110,2013-03-30 03:51:00